User: anonymous   Login
Location: Unspecified
(0.0000°N, 0.0000°E)
Time: 06:44:37
(UTC+00:00)
Language:

Gurwin Techsat 1B - Orbit

View from above orbital plane
View from above orbital plane
View from above satellite
View from above satellite

Ground track
Ground track

The orbit data is extracted from the following two-line orbital elements,

1 25397U 98043D   17087.86110178 -.00000006 +00000-0 +16339-4 0  9998
2 25397 098.6030 031.9227 0000697 169.8898 190.2295 14.23617913972147
Epoch (UTC): 28 March 2017 20:39:59
Eccentricity: 0.0000697
inclination: 98.6030°
perigee height: 812 km
apogee height: 813 km
right ascension of ascending node: 31.9227°
argument of perigee: 169.8898°
revolutions per day: 14.23617913
mean anomaly at epoch: 190.2295°
orbit number at epoch: 97214

The dashed part of the orbit path shows where the satellite is in the earth's shadow,  

DLR